User: anonymous   Login
Location: Unspecified
(0.0000°N, 0.0000°E)
Time: 03:36:29
(UTC+00:00)
Language:

DNEPR OBJECT AC - Orbit

View from above orbital plane
View from above orbital plane
View from above satellite
View from above satellite

Ground track
Ground track

The orbit data is extracted from the following two-line orbital elements,

1 39442U 13066AC  17112.75222221 +.00000916 +00000-0 +99457-4 0  9997
2 39442 097.6540 175.8304 0033175 048.7998 311.6072 14.90121508184438
Epoch (UTC): 22 April 2017 18:03:11
Eccentricity: 0.0033175
inclination: 97.6540°
perigee height: 574 km
apogee height: 621 km
right ascension of ascending node: 175.8304°
argument of perigee: 48.7998°
revolutions per day: 14.90121508
mean anomaly at epoch: 311.6072°
orbit number at epoch: 18443

The dashed part of the orbit path shows where the satellite is in the earth's shadow,  

DLR